WHITEHORSE, YK current weather conditions

sailwx.info

Wind from 010 at 4 knots

Air temperature -1.0° C
Visibility: greater than 8.7 NM
Dewpoint -4.0° C

Last reported at 2014-Oct-26 01:00 UTC.
Time now 2014-Oct-26 03:05 UTC

Location: N 60°43' W 135°04'.
View on Google Maps.

See reports from other nearby stations

  
Tides and Currents Weather Stations Pressure Air Temp Water Temp Dewpoint Dewpoint Depression Visibility Wind Speed Wind Dir Waves Ship Positions
date/time (UTC)wind fromknots sea level pressurealtimeterstation pressurevisibilityair tempwater tempwave heightnotes
2014-Oct-26 01:00 010 4 8.7-1.0
2014-Oct-26 00:00 360 3 13.0-1.0 Showers in the vicinity.
2014-Oct-25 23:00 360 5 34.8-1.0
2014-Oct-25 22:00 350 5 34.8-1.0
2014-Oct-25 21:00 310 4 17.4-2.0 Showers in the vicinity.
2014-Oct-25 20:00 34.8-2.0
2014-Oct-25 19:00 320 2 34.8-4.0
2014-Oct-25 18:00 34.8-5.0
2014-Oct-25 17:00 240 2 26.1-7.0 Fog in the vicinity.
2014-Oct-25 16:00 240 2 34.8-6.0
2014-Oct-25 15:00 130 2 13.0-6.0
2014-Oct-25 14:00 13.0-6.0
2014-Oct-25 13:00 13.0-5.0
2014-Oct-25 12:00 13.0-4.0
2014-Oct-25 11:00 120 3 13.0-3.0
2014-Oct-25 10:00 160 5 13.0-3.0
2014-Oct-25 09:00 170 6 13.0-1.0
2014-Oct-25 08:00 140 4 13.0-0.0
2014-Oct-25 07:00 170 3 13.0-1.0
2014-Oct-25 06:00 230 6 13.0-0.0
2014-Oct-25 05:00 240 6 13.0-0.0
2014-Oct-25 04:00 170 5 13.0-0.0
2014-Oct-25 03:00 240 4 13.0 1.0
2014-Oct-25 02:00 260 4 34.8-0.0
2014-Oct-25 01:00 34.8 2.0
2014-Oct-25 00:00 290 5 34.8 4.0
2014-Oct-24 23:00 170 5 34.8 4.0
2014-Oct-24 22:00 150 7 34.8 4.0
2014-Oct-24 21:00 160 10 34.8 3.0
2014-Oct-24 20:00 160 11 34.8 2.0
2014-Oct-24 19:00 180 12 34.8 1.0
2014-Oct-24 18:00 170 11 34.8-0.0
2014-Oct-24 17:00 180 13 34.8-1.0
2014-Oct-24 16:00 180 11 34.8-1.0
2014-Oct-24 15:00 170 12 13.0-1.0
2014-Oct-24 14:00 160 7 13.0-1.0
2014-Oct-24 13:00 170 5 13.0-1.0
2014-Oct-24 12:00 180 5 13.0-1.0
2014-Oct-24 11:00 160 2 13.0-1.0
2014-Oct-24 10:00 13.0-1.0
2014-Oct-24 09:00 13.0-1.0
2014-Oct-24 08:00 13.0-1.0
2014-Oct-24 07:00 13.0-0.0
2014-Oct-24 06:00 13.0-0.0
2014-Oct-24 05:00 230 2 13.0-0.0
2014-Oct-24 04:00 270 2 7.0 1.0
2014-Oct-24 03:00 230 2 13.0 1.0